This demonstration page uses our WeatherBlox Daily Observations layout. Learn more.

Left ArrowRight Arrow

Hourly Observations for September 7, 2022

Temp ( °F °C ) Dew Point ( °F °C ) Humidity (%) Winds ( mph kmh ) Pressure ( in mb ) Visibility ( mi km ) Precip ( " mm )
12:53 am 00:53 Clear 66 18.9 63 17.2 90 90 Calm 30.09 1019 10 16 0.00 0.00
1:53 am 01:53 Clear 65 18.3 63 17.2 93 93 Calm 30.08 1019 10 16 0.00 0.00
3:53 am 03:53 Clear with Mist and Fog 63 17.2 61 16.1 93 93 Calm 30.08 1019 6 10 0.00 0.00
4:53 am 04:53 Clear with Mist and Fog 62 16.7 60 15.6 93 93 Calm 30.09 1019 5 8 0.00 0.00
5:53 am 05:53 Mostly Clear with Mist and Fog 61 16.1 59 15 93 93 Calm 30.09 1019 4 6 0.00 0.00
6:26 am 06:26 Mostly Clear with Mist and Fog 59 15 58 14.4 96 96 Calm 30.10 1019 2 2 0.00 0.00
6:35 am 06:35 Clear with Mist and Fog 59 15 58 14.4 96 96 Calm 30.10 1019 3 4 0.00 0.00
6:42 am 06:42 Clear with Mist and Fog 60 15.6 58 14.4 93 93 Calm 30.10 1019 5 8 0.00 0.00
6:53 am 06:53 Clear with Mist and Fog 60 15.6 58 14.4 93 93 Calm 30.10 1019 5 8 0.00 0.00
7:53 am 07:53 Sunny with Mist and Fog 62 16.7 61 16.1 96 96 Calm 30.12 1020 6 10 0.00 0.00
8:53 am 08:53 Cloudy 65 18.3 62 16.7 90 90 Calm 30.11 1020 10 16 0.00 0.00
9:53 am 09:53 Cloudy 67 19.4 62 16.7 84 84 NW 3 6 30.12 1020 10 16 0.00 0.00
10:53 am 10:53 Cloudy 72 22.2 64 17.8 76 76 VRB 3 6 30.12 1020 10 16 0.00 0.00
11:53 am 11:53 Cloudy 74 23.3 63 17.2 69 69 N 5 7 30.11 1020 10 16 0.00 0.00
12:53 pm 12:53 Mostly Cloudy 76 24.4 62 16.7 62 62 VRB 6 9 30.09 1019 10 16 0.00 0.00
1:53 pm 13:53 Partly Cloudy 79 26.1 60 15.6 52 52 NE 10 17 30.07 1018 10 16 0.00 0.00
2:53 pm 14:53 Partly Cloudy 79 26.1 58 14.4 49 49 N 8 13 30.05 1018 10 16 0.00 0.00
3:53 pm 15:53 Mostly Sunny 80 26.7 57 13.9 45 45 NW 7 11 30.03 1017 10 16 0.00 0.00
4:53 pm 16:53 Mostly Cloudy 80 26.7 59 15 49 49 NNW 9 15 30.03 1017 10 16 0.00 0.00
5:53 pm 17:53 Mostly Sunny 79 26.1 57 13.9 47 47 N 7 11 30.02 1017 10 16 0.00 0.00
6:53 pm 18:53 Sunny 77 25 57 13.9 50 50 N 3 6 30.02 1017 10 16 0.00 0.00
7:53 pm 19:53 Sunny 72 22.2 58 14.4 61 61 NNW 3 6 30.02 1017 10 16 0.00 0.00
8:53 pm 20:53 Clear 65 18.3 61 16.1 87 87 Calm 30.03 1017 10 16 0.00 0.00
9:53 pm 21:53 Partly Cloudy 65 18.3 60 15.6 84 84 NNW 3 6 30.04 1017 10 16 0.00 0.00
10:53 pm 22:53 Clear 66 18.9 59 15 78 78 NE 5 7 30.04 1017 10 16 0.00 0.00
11:53 pm 23:53 Clear 64 17.8 60 15.6 87 87 Calm 30.03 1017 10 16 0.00 0.00

Powered by AerisWeather